Voltar ao catálogo

STARLINK-30251

AtivoComunicaçõesVLEO
NORAD 57532·PAYLOAD·🇺🇸 United States

Lançado Aug 8, 2023 de Vandenberg Space Force Base

Loading…

Próximas Passagens (próximas 24 horas)

TLE

AtualizadoSource: CelesTrak SupGP

Época: Sep 15, 2026, 03:14 UTC

1 57532C 23115M   26258.13520833  .00019903  00000+0  72070-3 0  2580
2 57532  43.0042  11.4718 0002016 269.9198 224.5974 15.27575065    19

Acompanhe STARLINK-30251 em tempo real com AllMySat

Download on the App Store